Weather History for VDPP - December, 2012

Change the Weather History Date:

Saturday, December 8, 2012

  Actual Average Record
Temperature  
Mean Temperature 84 °F -  
Max Temperature 91 °F 84 °F 91 °F (2012)
Min Temperature 77 °F 73 °F 69 °F (2003)
Cooling Degree Days 19    
Growing Degree Days 34 (Base 50)    
Moisture  
Dew Point 72 °F    
Average Humidity 63    
Maximum Humidity 89    
Minimum Humidity 46    
Precipitation  
Precipitation 0.00 in - - ()
Sea Level Pressure  
Sea Level Pressure 29.82 in    
Wind  
Wind Speed 3 mph ()    
Max Wind Speed 7 mph    
Max Gust Speed -    
Visibility 5.8 miles    
Events      
Averages and records for this station are not official NWS values.
T = Trace of Precipitation, MM = Missing Value Source: Averaged Metar Reports

Daily Weather History Graph

Daily Weather History Graph

Search for Another Location

Airport or City:

Trip Planner

Search our weather history database for the weather conditions in past years. The results will help you decide how hot, cold, wet, or windy it might be!

Date:

Astronomy

Dec. 08, 2012 Rise Set
Actual Time 6:08 AM ICT 5:36 PM ICT
Civil Twilight 5:45 AM ICT 5:59 PM ICT
Nautical Twilight 5:19 AM ICT 6:25 PM ICT
Astronomical Twilight 4:53 AM ICT 6:52 PM ICT
Moon 12:48 AM ICT (12/8) 1:03 PM ICT (12/8)
Length of Visible Light 12h 13m
Length of Day
11h 28m
Waning Crescent, 33% of the Moon is Illuminated
Dec 8
Waning Crescent
Dec 13
New
Dec 20
First Quarter
Dec 28
Full
Jan 5
Last Quarter

Hourly Weather History & Observations

Time (ICT) Temp. Heat Index Dew Point Humidity Pressure Visibility Wind Dir Wind Speed Gust Speed Precip Events Conditions
12:00 AM 80.6 °F 86.2 °F 75.2 °F 84% 29.83 in 5.6 mi West 4.6 mph - N/A   Scattered Clouds
12:30 AM 80.6 °F 85.4 °F 73.4 °F 79% 29.83 in 5.6 mi West 4.6 mph - N/A   Scattered Clouds
1:00 AM 80.6 °F 85.4 °F 73.4 °F 79% 29.83 in 5.6 mi West 4.6 mph - N/A   Scattered Clouds
6:00 AM 77.0 °F - 73.4 °F 89% 29.83 in 5.6 mi South 2.3 mph - N/A   Mostly Cloudy
7:00 AM 78.8 °F - 73.4 °F 83% 29.83 in 5.0 mi SSW 3.5 mph - N/A   Unknown
7:30 AM 80.6 °F 85.4 °F 73.4 °F 79% 29.86 in 5.0 mi SSE 2.3 mph - N/A   Unknown
8:00 AM 82.4 °F 89.5 °F 75.2 °F 79% 29.86 in 5.0 mi SSW 2.3 mph - N/A   Unknown
8:30 AM 84.2 °F 90.9 °F 73.4 °F 70% 29.86 in 5.6 mi SSW 2.3 mph - N/A   Partly Cloudy
9:00 AM 86.0 °F 91.8 °F 71.6 °F 62% 29.89 in - North - - N/A   Partly Cloudy
9:30 AM 86.0 °F 93.4 °F 73.4 °F 66% 29.89 in 6.2 mi NNW 3.5 mph - N/A   Scattered Clouds
10:00 AM 86.0 °F 91.8 °F 71.6 °F 62% 29.89 in 6.2 mi SSE 2.3 mph - N/A   Scattered Clouds
10:30 AM 87.8 °F 93.8 °F 71.6 °F 58% 29.89 in 6.2 mi NW 5.8 mph - N/A   Scattered Clouds
11:00 AM 87.8 °F 93.8 °F 71.6 °F 58% 29.86 in 6.2 mi NW 5.8 mph - N/A   Scattered Clouds
11:30 AM 87.8 °F 93.8 °F 71.6 °F 58% 29.86 in 6.2 mi North 2.3 mph - N/A   Scattered Clouds
12:00 PM 87.8 °F 93.8 °F 71.6 °F 58% 29.86 in 6.2 mi ENE 2.3 mph - N/A   Scattered Clouds
12:30 PM 91.4 °F 98.4 °F 71.6 °F 52% 29.83 in 6.2 mi ESE 4.6 mph - N/A   Scattered Clouds
1:00 PM 89.6 °F 94.7 °F 69.8 °F 52% 29.80 in 6.2 mi NNE 4.6 mph - N/A   Scattered Clouds
1:30 PM 89.6 °F 94.7 °F 69.8 °F 52% 29.80 in 6.2 mi North 4.6 mph - N/A   Scattered Clouds
2:00 PM 89.6 °F 94.7 °F 69.8 °F 52% 29.77 in 6.2 mi Calm Calm - N/A   Scattered Clouds
2:30 PM 89.6 °F 94.7 °F 69.8 °F 52% 29.74 in 6.2 mi WNW 5.8 mph - N/A   Scattered Clouds
3:00 PM 91.4 °F 95.4 °F 68.0 °F 46% 29.74 in 6.2 mi NE 3.5 mph - N/A   Scattered Clouds
3:30 PM 91.4 °F 96.8 °F 69.8 °F 49% 29.74 in 6.2 mi NNW 5.8 mph - N/A   Scattered Clouds
4:00 PM 91.4 °F 95.4 °F 68.0 °F 46% 29.74 in 6.2 mi North 4.6 mph - N/A   Scattered Clouds
4:30 PM 89.6 °F 93.4 °F 68.0 °F 49% 29.74 in 6.2 mi NNE 6.9 mph - N/A   Partly Cloudy
5:00 PM 87.8 °F 92.6 °F 69.8 °F 55% 29.77 in 6.2 mi North 4.6 mph - N/A   Partly Cloudy
5:30 PM 87.8 °F 92.6 °F 69.8 °F 55% 29.77 in 6.2 mi North 4.6 mph - N/A   Partly Cloudy
6:00 PM 87.8 °F 92.6 °F 69.8 °F 55% 29.77 in 6.2 mi North 2.3 mph - N/A   Partly Cloudy
6:30 PM 87.8 °F 93.8 °F 71.6 °F 58% 29.77 in 5.6 mi NNE 4.6 mph - N/A   Partly Cloudy
7:00 PM 86.0 °F 91.8 °F 71.6 °F 62% 29.80 in 5.6 mi Variable 1.2 mph - N/A   Partly Cloudy
7:30 PM 86.0 °F 91.8 °F 71.6 °F 62% 29.80 in 5.6 mi North 3.5 mph - N/A   Partly Cloudy
8:00 PM 86.0 °F 91.8 °F 71.6 °F 62% 29.80 in 5.6 mi NNW 4.6 mph - N/A   Partly Cloudy
8:30 PM 86.0 °F 91.8 °F 71.6 °F 62% 29.80 in 5.6 mi NNW 3.5 mph - N/A   Partly Cloudy
9:30 PM 82.4 °F 88.2 °F 73.4 °F 74% 29.83 in 5.6 mi Calm Calm - N/A   Partly Cloudy
10:00 PM 82.4 °F 87.2 °F 71.6 °F 70% 29.83 in 5.6 mi Calm Calm - N/A   Partly Cloudy
10:30 PM 82.4 °F 87.2 °F 71.6 °F 70% 29.83 in 5.6 mi Calm Calm - N/A   Partly Cloudy
11:00 PM 82.4 °F 88.2 °F 73.4 °F 74% 29.83 in 5.6 mi SW 6.9 mph - N/A   Partly Cloudy
11:30 PM 82.4 °F 88.2 °F 73.4 °F 74% 29.83 in 5.6 mi WSW 5.8 mph - N/A   Partly Cloudy